AUA105 LOWS-LFST

Flight info

Callsign AUA105
Flight time N/A
Altitude 36000
Route TRAUN L856 AKABI/N0446F350 L856 TRA/N0441F340 Z652 MOPAN/N0376F180 T711 DENEL/N0355F140 Y126 LUPEN
Aircraft A320/M-SDE3FGHIRWY/LB1

Departure

Time 2026-05-04 19:25
Airport Salzburg Airport (LOWS)

Arrival

Time N/A
Airport Strasbourg Airport (LFST)
Time Latitude Longitude Altitude Speed Heading
2026-05-04 18:44 47.79090 12.99964 1420 ft 0 kts 282°
2026-05-04 19:15 47.79087 12.99982 1420 ft 4 kts 282°
2026-05-04 19:15 47.79083 13.00015 1420 ft 4 kts 275°
2026-05-04 19:15 47.79086 13.00050 1420 ft 4 kts 221°
2026-05-04 19:16 47.79107 13.00059 1420 ft 3 kts 159°
2026-05-04 19:16 47.79111 13.00058 1420 ft 0 kts 156°
2026-05-04 19:18 47.79110 13.00058 1420 ft 0 kts 156°
2026-05-04 19:19 47.79085 13.00074 1420 ft 8 kts 156°
2026-05-04 19:19 47.79039 13.00103 1420 ft 8 kts 156°
2026-05-04 19:19 47.78990 13.00134 1420 ft 7 kts 157°
2026-05-04 19:19 47.78957 13.00189 1420 ft 8 kts 109°
2026-05-04 19:20 47.78954 13.00266 1420 ft 7 kts 91°
2026-05-04 19:20 47.78952 13.00338 1420 ft 7 kts 98°
2026-05-04 19:20 47.78912 13.00392 1420 ft 9 kts 156°
2026-05-04 19:20 47.78858 13.00426 1421 ft 8 kts 156°
2026-05-04 19:21 47.78812 13.00456 1421 ft 8 kts 157°
2026-05-04 19:21 47.78736 13.00504 1422 ft 13 kts 156°
2026-05-04 19:21 47.78661 13.00552 1420 ft 11 kts 157°
2026-05-04 19:21 47.78595 13.00594 1420 ft 10 kts 156°
2026-05-04 19:22 47.78523 13.00639 1420 ft 15 kts 156°
2026-05-04 19:22 47.78425 13.00702 1421 ft 14 kts 157°
2026-05-04 19:22 47.78343 13.00754 1423 ft 12 kts 157°
2026-05-04 19:22 47.78271 13.00800 1420 ft 11 kts 155°
2026-05-04 19:23 47.78213 13.00857 1422 ft 9 kts 136°
2026-05-04 19:23 47.78184 13.00934 1422 ft 8 kts 101°
2026-05-04 19:23 47.78192 13.01010 1422 ft 7 kts 67°
2026-05-04 19:23 47.78216 13.01070 1421 ft 6 kts 38°
2026-05-04 19:24 47.78255 13.01074 1419 ft 5 kts 342°
2026-05-04 19:24 47.78277 13.01060 1421 ft 2 kts 337°
2026-05-04 19:24 47.78291 13.01051 1419 ft 4 kts 337°
2026-05-04 19:24 47.78498 13.00920 1421 ft 70 kts 336°
2026-05-04 19:25 47.79146 13.00510 1420 ft 132 kts 337°
2026-05-04 19:25 47.80137 12.99875 1549 ft 170 kts 336°
2026-05-04 19:25 47.81265 12.99156 2092 ft 183 kts 336°
2026-05-04 19:25 47.82374 12.98169 2794 ft 187 kts 314°
2026-05-04 19:26 47.83144 12.96513 3251 ft 206 kts 301°
2026-05-04 19:26 47.83900 12.94562 3548 ft 231 kts 300°
2026-05-04 19:26 47.84734 12.92377 3956 ft 255 kts 299°
2026-05-04 19:26 47.85640 12.89998 4642 ft 269 kts 298°
2026-05-04 19:27 47.86572 12.87553 5554 ft 274 kts 298°
2026-05-04 19:27 47.87516 12.85080 6511 ft 276 kts 298°
2026-05-04 19:27 47.88468 12.82585 7405 ft 278 kts 297°
2026-05-04 19:27 47.89420 12.80102 8328 ft 281 kts 297°
2026-05-04 19:28 47.90396 12.77560 9255 ft 284 kts 297°
2026-05-04 19:28 47.91385 12.74990 10122 ft 288 kts 297°
2026-05-04 19:28 47.92412 12.72294 10483 ft 311 kts 296°
2026-05-04 19:28 47.93507 12.69366 10766 ft 334 kts 296°
2026-05-04 19:29 47.94659 12.66283 11322 ft 345 kts 296°
2026-05-04 19:29 47.95823 12.63120 12054 ft 350 kts 293°
2026-05-04 19:29 47.96676 12.59724 12790 ft 351 kts 281°
2026-05-04 19:29 47.97039 12.56130 13553 ft 351 kts 269°
2026-05-04 19:30 47.96905 12.52497 14238 ft 352 kts 259°
2026-05-04 19:30 47.96567 12.48914 14905 ft 355 kts 260°
2026-05-04 19:30 47.96225 12.45241 15571 ft 359 kts 260°
2026-05-04 19:30 47.95880 12.41534 16221 ft 363 kts 260°
2026-05-04 19:31 47.95529 12.37789 16871 ft 366 kts 261°
2026-05-04 19:31 47.95175 12.34005 17530 ft 370 kts 261°
2026-05-04 19:31 47.94815 12.30184 18183 ft 374 kts 261°
2026-05-04 19:31 47.94450 12.26327 18751 ft 377 kts 261°
2026-05-04 19:32 47.94083 12.22431 19320 ft 381 kts 261°
2026-05-04 19:32 47.93718 12.18556 19886 ft 384 kts 261°
2026-05-04 19:32 47.93341 12.14595 20460 ft 388 kts 261°
2026-05-04 19:32 47.92955 12.10600 21027 ft 391 kts 261°
2026-05-04 19:33 47.92565 12.06579 21582 ft 394 kts 261°
2026-05-04 19:33 47.92169 12.02523 22125 ft 397 kts 261°
2026-05-04 19:33 47.91766 11.98428 22661 ft 400 kts 261°
2026-05-04 19:33 47.91361 11.94313 23180 ft 403 kts 261°
2026-05-04 19:34 47.90951 11.90162 23651 ft 406 kts 261°
2026-05-04 19:34 47.90534 11.85979 24073 ft 409 kts 260°
2026-05-04 19:34 47.90113 11.81772 24491 ft 411 kts 260°
2026-05-04 19:34 47.89690 11.77551 24888 ft 414 kts 260°
2026-05-04 19:35 47.89269 11.73354 25266 ft 416 kts 261°
2026-05-04 19:35 47.88843 11.69082 25677 ft 418 kts 261°
2026-05-04 19:35 47.88416 11.64786 26067 ft 420 kts 261°
2026-05-04 19:35 47.87989 11.60465 26453 ft 423 kts 261°
2026-05-04 19:36 47.87557 11.56121 26831 ft 425 kts 260°
2026-05-04 19:36 47.87117 11.51760 27200 ft 427 kts 260°
2026-05-04 19:36 47.86669 11.47379 27566 ft 429 kts 260°
2026-05-04 19:36 47.86214 11.42977 27920 ft 431 kts 260°
2026-05-04 19:37 47.85758 11.38549 28262 ft 433 kts 260°
2026-05-04 19:37 47.85304 11.34107 28593 ft 436 kts 260°
2026-05-04 19:37 47.84846 11.29633 28916 ft 438 kts 260°
2026-05-04 19:37 47.84389 11.25206 29215 ft 440 kts 260°
2026-05-04 19:38 47.83918 11.20702 29525 ft 442 kts 260°
2026-05-04 19:38 47.83442 11.16172 29821 ft 444 kts 260°
2026-05-04 19:38 47.82963 11.11635 30091 ft 445 kts 260°
2026-05-04 19:38 47.82480 11.07070 30327 ft 447 kts 259°
2026-05-04 19:39 47.82375 11.06077 30376 ft 447 kts 259°
2026-05-04 19:39 47.81871 11.01377 30808 ft 443 kts 259°
2026-05-04 19:39 47.81385 10.96841 30973 ft 445 kts 259°
2026-05-04 19:40 47.80414 10.87819 31004 ft 445 kts 259°
2026-05-04 19:40 47.79432 10.78748 31004 ft 444 kts 259°
2026-05-04 19:41 47.78447 10.69679 31005 ft 444 kts 259°
2026-05-04 19:41 47.77445 10.60624 30998 ft 444 kts 259°
2026-05-04 19:42 47.76465 10.51794 30996 ft 444 kts 259°
2026-05-04 19:42 47.75454 10.42739 30992 ft 444 kts 258°
2026-05-04 19:43 47.74552 10.33676 30994 ft 445 kts 265°
2026-05-04 19:43 47.74361 10.24480 30993 ft 445 kts 266°
2026-05-04 19:44 47.74149 10.15292 30993 ft 445 kts 265°
2026-05-04 19:44 47.73927 10.06115 30989 ft 444 kts 265°
2026-05-04 19:45 47.73705 9.97010 30983 ft 444 kts 265°
2026-05-04 19:45 47.73474 9.87846 30973 ft 444 kts 265°
2026-05-04 19:46 47.73237 9.78696 30972 ft 443 kts 265°
2026-05-04 19:46 47.72988 9.69550 30974 ft 443 kts 265°